Overview Statistics Trail Chart Weather Telemetry Raw packets
 

This is the latest recevied weather packets stored in our database for station/object W8RSN-13. If no packets are shown the sender has not sent any weather packets the latest 10 day(s).

<< 75 76 77 78 79 80 81 >>
Time Temp. Humidity Pressure Rain* Wind** Luminosity Snow
1788144264 27.78° C 50% 1012.3 hPa - - - -
1788143964 28.33° C 49% 1012.2 hPa - - - -
1788143663 28.89° C 45% 1012.1 hPa - - - -
1788143362 28.89° C 44% 1012.3 hPa - - - -
1788143061 28.89° C 44% 1012.1 hPa - - - -
1788142760 29.44° C 44% 1011.9 hPa - - - -
1788142459 29.44° C 43% 1012 hPa - - - -
1788142159 30° C 41% 1012.1 hPa - - - -
1788141858 30° C 39% 1011.9 hPa - - - -
1788141557 30° C 41% 1012 hPa - - - -
1788141256 31.11° C 40% 1012 hPa - - - -
1788140975 31.67° C 33% 1012 hPa - - - -
1788140674 31.67° C 32% 1012.1 hPa - - - -
1788140373 31.67° C 34% 1012.2 hPa - - - -
1788140072 32.22° C 34% 1012.1 hPa - - - -
1788139772 31.67° C 35% 1012.2 hPa - - - -
1788139471 31.67° C 37% 1012.1 hPa - - - -
1788139170 31.67° C 37% 1011.9 hPa - - - -
1788138869 32.22° C 38% 1011.9 hPa - - - -
1788138568 32.22° C 39% 1012 hPa - - - -
1788138267 32.22° C 38% 1011.8 hPa - - - -
1788137966 32.78° C 32% 1011.9 hPa - - - -
1788137665 33.33° C 33% 1012 hPa - - - -
1788137365 33.33° C 31% 1011.8 hPa - - - -
1788137063 33.33° C 31% 1012 hPa - - - -

* Rain since midnight (hover to see other rain measurements)
** Current wind speed in m/s (hover to see current wind gust speed)